Temp_Advection
nan nan nan nan nan nan nan nan nan nan nan nan nan nan nan nan nan nan nan nan nan nan nan nan nan nan nan nan nan nan nan nan nan nan nan nan nan nan nan nan nan nan nan nan
nan 0 -0 -0 -0 0 -0 0 0 -0 -0 -0 -0 -0 0 0 -0 0 0 0 1 1 0 0 0 0 0 0 0 -0 -1 -0 -0 0 0 0 0 -0 -0 -0 -0 -0 -0 nan
nan 0 -0 -0 -0 -0 0 0 0 0 -0 -0 -0 0 0 0 -0 -0 0 0 0 0 -0 -0 -0 -0 0 0 -0 -0 -0 -0 0 -0 -0 -0 -0 -0 -0 -0 -0 -0 -0 nan
nan -0 -0 -0 0 0 0 0 -0 -0 -0 -0 -0 0 -0 -0 -0 0 0 0 0 0 0 -0 -0 0 0 -0 -0 -0 -0 -0 -0 -0 -0 -0 -0 -0 -0 -0 -0 -0 -0 nan
nan -0 -0 0 0 0 -0 -0 -0 -0 -0 0 -0 -0 0 0 -0 0 -0 0 0 0 0 0 -0 -0 -0 0 -0 -0 -0 -0 0 0 -0 -0 -0 -0 -0 -0 -0 -0 -0 nan
nan -0 -0 -0 -0 -0 -0 -0 -1 -0 -0 0 -0 -0 0 -0 -0 -0 -0 -0 0 0 0 0 0 0 0 0 0 0 0 -0 -0 -0 -0 -0 -0 -0 -0 -0 -0 -0 -0 nan
nan -0 -0 0 -0 -0 -0 -0 -0 0 -0 -0 -0 -0 -0 -0 -0 -1 -1 -1 -0 -0 -0 -0 0 0 0 0 0 0 0 0 -0 -0 -0 -0 -0 -0 -0 -0 -0 -0 -1 nan
nan -0 0 -0 -0 -0 -0 -0 -0 0 0 -0 -0 0 0 -0 -0 -0 -1 -0 -0 0 0 0 1 1 0 0 0 0 0 0 -0 -0 -0 -0 -0 -0 -0 -0 -0 -0 -0 nan
nan -0 -0 0 -0 -0 -0 -0 -0 -0 0 0 -0 -0 -0 -0 0 1 1 0 0 0 1 1 0 0 -0 0 0 0 0 0 -0 -0 -0 -0 -0 -0 -0 -0 -0 -0 -0 nan
nan 0 -0 -0 -0 -0 -0 -0 -0 0 0 0 0 0 0 -0 -0 0 0 0 0 1 0 0 0 0 0 0 0 0 0 0 -0 -0 -0 -0 -0 0 0 -0 -0 -0 -0 nan
nan 0 -0 -0 -0 0 -0 -0 -0 -0 -0 0 -0 -0 -0 0 -0 -0 -0 0 1 1 0 0 0 0 0 0 0 0 -0 -0 -0 -0 -0 -0 0 0 0 0 -0 -0 -0 nan
nan -0 0 0 0 0 -0 -0 -0 0 0 -0 0 -1 -0 0 -0 -0 0 1 1 1 0 0 0 0 0 -0 -0 -0 -0 0 0 0 0 -0 -0 -0 -0 -0 -0 -0 -0 nan
nan -0 0 -0 -0 -0 0 -0 -0 -0 0 -0 -0 -0 0 0 1 1 1 1 1 0 0 0 0 0 -0 -0 0 0 0 0 0 0 -0 -0 -0 -0 -0 -0 -0 -0 -0 nan
nan -0 -0 0 0 0 0 -0 -0 -1 -0 -0 -1 -0 0 0 0 1 1 0 0 0 0 0 0 0 0 0 0 -0 0 0 -0 -0 -0 -0 -0 -0 -0 -0 -0 -0 -0 nan
nan 0 -0 -0 -0 -0 -0 0 0 0 -0 -0 0 0 0 0 -0 0 0 0 0 0 0 0 0 0 -0 0 0 0 0 -0 -0 -0 -0 -0 -0 -0 -0 -0 -0 -0 -0 nan
nan 0 0 0 -0 -0 -0 0 0 0 0 0 -0 0 0 0 -0 -0 0 -0 -0 0 0 0 0 0 0 0 0 -0 -0 -0 -0 -0 -0 -0 -0 -0 -0 -0 -0 -0 -0 nan
nan 0 0 0 -0 -0 -0 -0 -0 -0 0 -0 0 0 -0 0 0 -0 -0 -0 -0 0 0 0 0 0 0 0 -0 -0 -0 -0 -0 -0 0 -0 -0 -0 -0 -0 -0 -0 -0 nan
nan -0 -0 0 0 -0 -1 0 0 -0 -0 0 0 0 -0 -0 -0 0 -0 0 0 0 0 0 0 0 0 0 -0 -0 -0 -0 -0 -0 -0 -0 -0 -0 -0 -0 -0 -0 -0 nan
nan -0 0 0 -0 -1 -0 0 -0 -0 0 0 0 0 0 0 1 0 -0 0 0 0 0 0 0 0 0 0 -0 -0 -0 -0 -0 -0 -0 -0 -0 -0 -0 -0 -0 -0 -0 nan
nan -0 -0 0 0 -0 -0 -0 -0 -0 0 -0 -0 -1 0 0 -0 -1 -1 1 0 0 0 0 0 0 0 0 -0 -0 -0 0 0 0 0 0 -0 -0 -0 -0 -0 -0 0 nan
nan 0 -0 -0 -0 -1 -1 -0 0 -0 -0 -1 -1 -1 -2 -0 -1 -0 1 1 0 0 0 0 0 0 0 0 0 0 0 0 0 0 0 0 0 -0 -0 -0 -0 -0 -0 nan
nan -0 -0 -0 0 -1 -0 0 -0 -0 -0 -0 -0 -1 -0 -1 0 0 1 1 0 0 0 0 0 0 0 0 0 0 0 0 0 0 0 0 0 -0 -0 -0 -0 -0 -0 nan
nan -0 0 -1 -1 -0 -0 -0 -1 -0 -0 0 0 1 2 1 1 0 0 0 0 0 0 0 0 0 0 -0 -0 0 0 0 0 0 0 0 -0 0 0 0 -0 -0 -0 nan
nan -0 -0 0 -0 -0 -2 -1 0 -0 -0 -0 0 1 1 1 1 0 1 0 0 0 0 0 0 0 0 -0 0 0 -0 0 1 1 0 0 0 0 0 0 0 0 0 nan
nan 0 -0 -0 -1 -1 -2 -1 0 1 1 0 1 1 1 1 1 1 0 0 0 0 0 0 0 0 -0 -0 -0 0 -0 0 1 1 -0 -0 0 0 0 0 0 -0 0 nan
nan nan nan nan nan nan nan nan nan nan nan nan nan nan nan nan nan nan nan nan nan nan nan nan nan nan nan nan nan nan nan nan nan nan nan nan nan nan nan nan nan nan nan nan
Wind_Speed
6 7 3 3 3 3 3 4 2 1 3 7 5 5 8 9 14 13 15 16 15 11 7 6 6 8 13 14 17 21 18 5 8 9 6 2 5 8 9 11 13 14 14 16
6 4 3 4 5 6 5 6 3 2 6 7 5 8 7 10 6 11 20 23 25 24 22 20 18 14 10 8 12 15 15 14 12 8 7 8 10 11 14 16 18 18 18 20
6 0 3 4 5 9 4 5 2 3 3 6 4 5 5 6 12 16 21 24 25 24 21 14 10 14 18 19 18 16 14 12 11 10 9 9 9 11 13 14 16 16 16 18
5 3 4 6 6 3 3 0 3 4 3 3 3 3 2 3 3 2 15 19 20 19 14 14 17 18 17 15 13 11 9 7 8 7 5 6 8 11 13 15 15 14 16 21
1 2 5 7 1 3 1 5 5 4 5 4 3 4 4 6 5 8 9 15 18 15 15 18 17 14 10 9 8 5 4 3 2 4 7 9 12 14 12 11 11 14 19 22
3 3 3 2 3 3 4 5 8 5 3 2 1 4 4 6 6 5 11 17 18 16 16 17 15 10 8 6 5 7 3 3 5 7 10 13 14 13 11 10 14 19 22 22
6 4 5 3 3 3 6 5 3 3 3 4 3 2 6 4 5 11 15 20 19 17 17 17 14 14 14 8 7 5 4 6 8 10 11 11 10 11 12 15 18 20 22 25
4 4 3 5 2 4 3 5 4 4 3 3 3 4 4 4 13 26 24 22 18 16 16 15 14 15 13 8 8 6 5 7 10 12 10 9 11 14 17 19 18 21 23 24
4 0 2 2 2 3 2 3 4 6 1 3 2 4 4 6 5 16 21 18 19 17 16 16 15 15 12 9 6 3 6 10 10 7 8 12 16 19 18 18 21 21 21 23
5 4 2 2 3 6 2 5 3 3 2 3 3 4 4 5 7 7 14 23 18 16 16 17 17 15 11 6 3 7 9 6 5 9 12 16 19 17 16 17 19 19 21 28
3 4 4 1 3 3 2 2 6 4 3 4 1 5 5 11 11 13 15 20 18 19 19 17 14 10 6 4 6 7 7 5 8 10 13 18 18 15 15 18 19 19 22 22
1 5 2 2 2 2 2 3 4 4 3 1 3 6 2 7 14 16 16 19 21 20 16 12 8 4 3 4 5 5 4 6 9 12 15 15 13 16 18 20 21 21 27 27
5 2 3 6 5 4 2 3 4 5 3 5 5 5 3 4 8 13 19 19 18 16 12 8 3 1 1 1 2 4 6 9 11 10 12 16 19 20 20 23 26 27 26 30
4 3 5 7 4 3 4 4 4 5 3 4 6 4 3 3 5 11 17 18 16 12 8 4 2 2 1 3 7 7 9 8 9 15 20 23 19 19 22 27 29 28 31 31
3 4 2 2 3 2 2 4 6 7 5 6 4 7 6 9 8 17 21 18 14 9 6 4 4 3 5 4 7 8 7 12 18 21 22 16 17 20 26 30 29 32 32 26
3 2 1 2 3 5 3 6 7 5 3 7 4 8 6 7 14 18 20 17 13 9 6 7 5 4 4 4 4 8 14 19 19 19 16 17 20 26 26 29 34 31 27 23
3 5 3 4 4 5 6 9 9 5 5 7 6 8 8 4 15 24 21 17 12 9 10 8 6 4 3 4 8 13 17 19 19 17 15 19 24 23 28 32 30 27 27 20
5 4 3 2 3 2 6 2 5 8 5 7 2 4 14 12 18 21 18 15 12 13 12 8 6 5 5 8 11 14 17 19 18 15 20 22 24 28 31 29 26 23 22 14
4 5 3 3 3 6 5 5 6 7 7 8 7 4 9 11 12 12 18 15 11 12 8 7 7 6 8 10 13 16 19 19 18 18 22 25 28 31 29 26 24 21 17 9
5 6 4 3 4 6 6 3 4 4 5 7 13 12 14 15 3 7 20 16 12 8 9 9 8 8 9 13 16 19 19 18 18 21 24 28 29 27 24 22 20 19 14 13
3 3 4 2 3 8 7 3 4 5 7 8 18 23 24 8 14 5 9 17 13 13 13 9 7 8 12 16 17 17 17 18 21 23 26 27 24 23 22 20 16 14 10 8
7 6 4 3 2 7 8 4 7 6 7 9 19 24 31 24 12 8 13 12 12 13 10 8 8 11 15 17 16 17 19 21 23 26 26 24 20 21 20 18 13 13 12 9
2 6 5 8 6 5 13 7 15 6 6 9 17 22 27 21 14 15 16 14 14 12 8 7 11 15 16 17 18 20 20 23 26 26 23 20 19 20 19 16 13 13 13 13
4 6 2 2 5 11 19 21 23 13 15 13 13 19 20 22 17 18 13 16 12 8 7 11 15 16 17 18 19 21 23 25 25 23 20 21 21 20 19 15 13 14 14 14
4 6 4 5 12 13 20 19 22 25 20 14 13 17 18 16 18 14 12 9 5 7 11 14 16 17 18 19 21 24 26 26 24 21 21 19 18 19 17 13 12 12 13 15
9 6 4 6 13 8 13 15 13 15 17 17 18 17 16 15 12 8 6 3 8 11 13 15 16 18 19 22 23 25 24 22 21 20 21 20 18 19 16 14 15 14 15 16
Wind_Direction
14 72 120 219 191 180 147 134 131 264 353 81 62 40 8 42 118 127 131 135 139 149 166 189 201 193 205 204 209 203 206 287 157 147 136 334 343 34 13 357 341 324 312 311
35 87 220 119 100 102 79 98 68 48 6 89 90 50 34 40 60 123 132 126 122 116 111 108 105 111 131 102 104 102 108 106 115 95 50 23 12 1 346 337 335 326 325 325
120 133 111 92 56 73 43 107 126 153 85 65 108 35 35 27 87 123 131 133 133 131 125 115 105 109 105 96 92 94 97 94 72 51 32 14 353 337 328 322 317 313 312 318
79 355 105 66 71 94 107 141 110 83 88 163 37 242 93 85 54 108 148 150 145 140 137 132 124 116 109 105 106 97 92 66 38 25 4 341 338 331 324 317 306 307 321 330
264 61 76 67 89 75 134 59 59 85 81 81 11 83 275 134 194 206 187 162 159 156 148 135 128 119 119 104 90 78 71 54 299 299 315 322 332 331 323 306 311 327 331 332
59 46 58 97 61 56 118 57 38 43 67 42 268 145 234 196 193 160 185 178 173 165 160 148 143 140 149 155 146 183 199 292 311 319 329 329 330 326 327 330 336 334 335 334
13 355 337 45 87 54 72 64 5 5 8 219 317 119 249 237 180 172 184 182 180 176 173 172 168 172 175 169 219 216 260 296 319 323 321 318 325 336 335 330 333 335 338 336
127 341 11 344 81 163 69 138 152 216 197 247 349 245 250 272 212 183 183 183 181 183 185 189 186 189 206 194 201 227 269 308 320 322 321 330 336 336 338 335 333 338 337 335
133 314 327 71 63 110 182 55 156 107 345 55 255 292 324 44 105 161 180 187 196 198 205 204 198 195 186 186 203 254 309 310 317 317 332 342 343 341 337 334 331 330 326 326
192 108 25 343 98 46 119 146 68 11 129 274 296 268 230 195 190 176 184 196 197 197 196 181 174 178 187 190 252 298 303 315 328 339 344 339 331 323 318 321 326 318 317 316
117 100 282 30 38 163 27 63 53 104 111 160 282 262 222 197 193 190 190 189 199 185 173 170 173 175 194 244 289 310 333 332 331 332 321 318 316 308 307 317 324 321 318 319
55 125 122 202 266 237 179 146 134 112 211 78 144 274 331 250 209 189 196 192 180 174 167 164 169 189 259 300 320 341 326 316 305 303 301 316 322 325 323 323 327 326 324 327
178 25 64 353 351 344 180 119 100 106 86 196 137 261 4 68 117 183 171 165 161 160 160 164 172 241 315 4 294 292 285 297 295 306 324 330 329 330 333 333 332 327 329 330
110 104 156 186 204 171 174 169 155 125 124 184 225 266 259 210 152 144 160 160 160 162 168 188 275 247 283 269 286 290 297 298 316 325 326 328 332 333 332 332 329 326 327 323
93 131 125 78 6 336 249 195 179 191 191 176 242 214 238 212 190 173 165 162 166 176 197 229 208 224 311 277 283 301 310 322 325 329 335 333 325 326 329 329 327 326 325 320
16 160 127 200 357 18 287 260 230 220 195 263 265 273 204 193 183 170 174 175 184 200 215 207 229 263 268 297 309 319 328 333 334 337 329 322 321 325 326 327 327 325 325 320
82 126 103 255 7 350 329 228 206 197 188 163 202 234 153 171 182 183 183 191 201 217 204 220 243 250 253 293 315 330 335 339 335 329 316 317 321 323 326 327 325 327 324 321
120 95 73 191 23 353 237 217 213 215 213 200 209 198 193 195 196 193 198 202 216 207 213 230 225 224 271 300 320 327 331 334 335 329 319 321 321 324 325 325 325 326 325 319
62 116 82 136 201 300 293 195 172 177 266 194 200 168 159 158 171 216 208 214 221 214 228 214 207 251 285 308 319 325 328 328 324 324 323 321 322 322 324 324 320 320 322 315
56 66 110 97 146 224 242 264 172 114 297 210 180 170 156 147 157 236 217 217 210 223 210 206 244 271 295 312 319 320 320 322 324 323 321 320 320 320 322 321 315 311 309 297
46 12 159 125 228 288 244 216 141 103 236 187 196 187 176 192 209 212 204 202 206 196 204 229 253 283 306 315 315 315 317 319 320 319 318 318 315 317 320 317 311 312 316 290
168 155 198 102 75 278 177 113 168 215 189 198 202 208 205 205 199 182 174 185 188 207 204 235 272 301 313 314 316 317 315 315 315 316 318 322 307 311 316 313 307 303 299 278
236 190 181 186 215 231 204 231 222 240 244 218 219 223 217 209 201 188 180 193 198 203 226 265 301 310 314 315 316 314 314 315 314 314 315 321 314 312 310 306 291 287 285 289
245 176 200 87 260 245 255 242 247 262 263 273 251 225 212 207 198 187 192 187 190 217 265 299 308 312 313 316 316 316 317 314 312 307 305 306 306 308 306 302 287 283 279 286
207 151 182 262 278 273 271 262 260 261 263 246 223 212 204 200 186 181 175 188 220 275 300 308 310 312 316 317 315 316 317 316 313 310 308 313 305 304 299 303 310 286 276 288
191 191 167 231 267 253 279 292 291 267 253 230 204 187 183 173 162 170 180 240 279 301 306 309 310 315 317 317 318 318 318 317 316 316 312 313 304 301 288 294 307 307 289 292
Height
1492 1501 1511 1504 1503 1503 1506 1512 1514 1514 1511 1523 1535 1536 1533 1529 1530 1534 1535 1536 1538 1537 1538 1539 1541 1542 1543 1546 1548 1552 1557 1558 1558 1566 1567 1566 1565 1563 1563 1562 1562 1561 1559 1558
1501 1510 1503 1503 1503 1506 1509 1517 1518 1516 1516 1521 1534 1540 1538 1536 1537 1537 1536 1538 1538 1539 1541 1543 1545 1547 1547 1549 1551 1553 1557 1559 1563 1565 1565 1565 1562 1562 1561 1561 1559 1557 1555 1554
1505 1504 1501 1501 1506 1509 1515 1519 1518 1520 1519 1523 1528 1542 1543 1541 1539 1539 1540 1540 1540 1540 1542 1545 1547 1549 1550 1552 1555 1557 1559 1561 1562 1562 1561 1561 1560 1560 1560 1558 1556 1554 1552 1550
1504 1502 1503 1505 1509 1512 1518 1514 1515 1519 1526 1539 1529 1551 1542 1543 1543 1542 1542 1542 1541 1542 1544 1546 1548 1551 1553 1555 1557 1559 1560 1560 1560 1560 1559 1559 1558 1557 1556 1554 1552 1551 1550 1548
1508 1505 1507 1511 1511 1508 1515 1514 1517 1521 1531 1534 1536 1547 1546 1543 1546 1543 1544 1543 1542 1543 1545 1545 1548 1551 1554 1556 1557 1558 1558 1558 1559 1559 1558 1557 1556 1554 1552 1551 1550 1549 1547 1545
1506 1504 1506 1508 1510 1510 1512 1518 1525 1531 1538 1555 1537 1543 1547 1544 1536 1540 1541 1542 1543 1545 1547 1548 1548 1549 1554 1556 1555 1557 1557 1557 1557 1557 1556 1555 1553 1551 1550 1549 1549 1547 1544 1541
1512 1511 1509 1509 1512 1513 1518 1529 1556 1557 1564 1558 1539 1544 1537 1530 1531 1533 1537 1541 1543 1545 1546 1548 1546 1548 1549 1551 1555 1555 1556 1556 1556 1555 1554 1553 1551 1550 1549 1547 1545 1542 1539 1536
1526 1531 1514 1511 1513 1518 1521 1527 1553 1545 1563 1555 1540 1544 1533 1528 1528 1530 1536 1539 1542 1544 1546 1548 1549 1550 1552 1550 1552 1554 1554 1554 1553 1552 1551 1550 1549 1547 1546 1543 1540 1537 1534 1532
1523 1522 1512 1512 1512 1515 1522 1535 1531 1552 1561 1566 1552 1539 1530 1529 1529 1531 1535 1538 1540 1543 1545 1546 1548 1549 1551 1549 1550 1551 1550 1551 1551 1550 1549 1547 1546 1544 1542 1539 1536 1533 1531 1528
1513 1525 1515 1513 1513 1516 1517 1525 1541 1552 1556 1550 1550 1544 1541 1533 1532 1531 1533 1535 1538 1541 1542 1544 1545 1547 1547 1547 1548 1548 1548 1548 1548 1547 1545 1544 1543 1541 1538 1535 1533 1530 1526 1523
1509 1519 1525 1516 1522 1523 1526 1530 1539 1544 1558 1564 1572 1547 1526 1524 1524 1526 1529 1533 1535 1538 1540 1542 1543 1544 1545 1545 1546 1545 1545 1546 1546 1545 1544 1542 1540 1537 1534 1532 1529 1525 1521 1518
1512 1524 1536 1523 1518 1519 1519 1524 1533 1556 1547 1568 1568 1549 1523 1523 1522 1525 1528 1531 1534 1536 1537 1540 1542 1543 1543 1543 1543 1543 1544 1544 1543 1542 1540 1538 1536 1534 1531 1528 1524 1521 1517 1514
1511 1526 1544 1535 1527 1520 1519 1524 1532 1539 1550 1552 1570 1545 1523 1521 1521 1524 1527 1530 1532 1536 1539 1540 1541 1542 1542 1542 1542 1541 1542 1541 1540 1539 1538 1535 1532 1529 1526 1523 1520 1516 1512 1507
1508 1523 1526 1537 1525 1524 1523 1522 1527 1531 1555 1547 1545 1528 1522 1523 1523 1524 1526 1530 1533 1536 1538 1539 1539 1539 1540 1541 1541 1540 1539 1539 1538 1537 1534 1531 1528 1525 1522 1519 1515 1510 1506 1500
1510 1522 1522 1525 1526 1522 1520 1521 1526 1528 1529 1534 1526 1530 1520 1519 1520 1522 1525 1529 1532 1534 1536 1537 1538 1538 1538 1538 1538 1538 1537 1536 1534 1531 1528 1526 1523 1521 1517 1513 1508 1504 1499 1495
1513 1528 1523 1525 1529 1530 1525 1522 1523 1524 1523 1526 1523 1522 1513 1514 1518 1522 1523 1526 1529 1531 1533 1534 1535 1535 1536 1536 1536 1536 1535 1532 1529 1526 1524 1521 1519 1516 1512 1507 1502 1497 1492 1489
1517 1527 1533 1538 1538 1534 1538 1518 1517 1514 1514 1515 1523 1510 1512 1515 1515 1517 1520 1523 1525 1528 1530 1531 1532 1532 1533 1534 1534 1533 1530 1528 1525 1522 1520 1518 1514 1510 1506 1502 1497 1492 1487 1484
1520 1529 1544 1549 1547 1551 1509 1506 1507 1508 1505 1506 1506 1507 1506 1507 1511 1516 1519 1521 1523 1525 1526 1528 1529 1531 1532 1531 1530 1529 1526 1523 1520 1518 1516 1513 1509 1505 1501 1497 1493 1488 1484 1480
1514 1527 1549 1551 1550 1525 1500 1502 1505 1504 1503 1500 1502 1504 1507 1510 1514 1516 1517 1519 1521 1523 1524 1526 1527 1528 1528 1528 1527 1524 1522 1519 1516 1513 1511 1507 1504 1499 1496 1492 1489 1485 1481 1479
1519 1522 1534 1558 1553 1548 1506 1497 1497 1497 1512 1493 1496 1501 1505 1511 1521 1509 1512 1515 1518 1522 1524 1525 1525 1526 1525 1524 1522 1519 1517 1514 1511 1509 1506 1502 1498 1495 1491 1487 1484 1482 1479 1477
1533 1538 1544 1567 1556 1527 1499 1497 1498 1513 1509 1492 1494 1497 1502 1505 1503 1505 1507 1511 1514 1516 1519 1522 1523 1523 1521 1520 1517 1515 1512 1510 1507 1504 1501 1497 1494 1490 1487 1484 1481 1479 1476 1475
1523 1531 1533 1549 1556 1527 1495 1499 1505 1494 1488 1489 1491 1493 1495 1498 1501 1504 1507 1511 1516 1516 1517 1519 1519 1519 1517 1515 1513 1510 1508 1505 1502 1499 1495 1491 1489 1486 1483 1480 1478 1476 1474 1472
1518 1510 1517 1517 1509 1492 1492 1488 1488 1487 1487 1487 1488 1489 1492 1497 1500 1502 1505 1508 1511 1515 1516 1516 1515 1514 1512 1510 1508 1505 1503 1500 1497 1493 1489 1487 1484 1482 1479 1476 1475 1473 1471 1469
1503 1501 1508 1505 1489 1488 1487 1487 1486 1486 1485 1486 1486 1488 1490 1494 1497 1500 1502 1506 1510 1512 1513 1512 1511 1509 1508 1506 1504 1501 1498 1494 1490 1487 1485 1482 1479 1477 1475 1472 1470 1469 1467 1466
1499 1499 1499 1499 1487 1485 1484 1483 1482 1482 1482 1483 1484 1486 1489 1493 1496 1498 1504 1508 1510 1510 1510 1509 1507 1505 1504 1502 1499 1496 1492 1488 1484 1482 1480 1476 1475 1473 1470 1468 1466 1464 1463 1462
1489 1489 1497 1494 1481 1482 1481 1480 1479 1478 1478 1480 1482 1484 1488 1491 1498 1503 1505 1507 1509 1508 1507 1506 1505 1502 1500 1497 1493 1490 1486 1482 1478 1476 1475 1472 1470 1468 1466 1464 1463 1461 1459 1458